Location: Bamazo
(6.7448°N, 10.8189°W)
Time: 01:36:26
(UTC+00:00)

Delta 7925 Rocket - Pass Details

Date: 18 September 2020
Orbit: 645 x 1648 km, 26.3° (Epoch: 21 October)

Event Time Altitude Azimuth Distance (km) Brightness Sun altitude
Rises 19:38:27 0° 300° (WNW) 2,978 7.7 -15.0°
Reaches altitude 10° 19:40:40 10° 302° (WNW) 2,117 6.8 -15.6°
Maximum altitude 19:45:33 74° 27° (NNE) 793 3.5 -16.8°
Enters shadow 19:48:35 28° 107° (ESE) 1,499 4.4 -17.5°
